Location: Briis
(48.6240°N, 2.1211°E)
Time: 11:07:03
(UTC+00:00)

CZ-4B R/B - Pass Details

Date: 25 September 2020
Orbit: 703 x 802 km, 98.9° (Epoch: 31 October)

Event Time Altitude Azimuth Distance (km) Brightness Sun altitude
Rises 02:28:23 0° 13° (NNE) 3,246 7.5 -30.6°
Reaches altitude 10° 02:30:41 10° 13° (NNE) 2,329 6.6 -30.3°
Enters shadow 02:34:36 53° 1° (N) 962 4.1 -29.8°
